Flag for Saudi Arabia Weather past 2 weeks in Jeddah, Saudi Arabia

Now
97 °F

Sunny.


Feels Like: 97 °F
Forecast: 78 / 96 °F
Wind: 9 mph from West

Location: Jeddah King Abdul Aziz International Airport

Current Time: May 28, 2015 at 6:01:14 PM

Latest Report: May 28, 2015 at 5:00 PM


Visibility: 10 mi

Pressure: 29.65 "Hg

Humidity: 30%

Dew point: 61 °F

Location of JeddahLocation

Historic Weather in Jeddah — Graph

°F

Jeddah temperature yesterday

Maximum temperature yesterday: 106 °F (at 11:00 AM)
Minimum temperature yesterday: 84 °F (at 4:00 AM)
Average temperature yesterday: 94 °F

Past Weeks' High & Low Weather Summary

 TemperatureHumidityPressure
High106 °F (May 20, 1:00 PM)84% (May 17, 4:00 AM)29.86 "Hg (May 17, 4:00 AM)
Low77 °F (May 17, 6:00 AM)14% (May 27, 1:00 PM)29.65 "Hg (May 19, 3:00 AM)
Average89 °F48%29.73 "Hg
* Reported May 13 5:00 PM — May 28 5:00 PM, Jeddah, Weather by CustomWeather, © 2015

Note: Actual official high and low records may vary slightly from our data, if they occured in-between our weather recording intervals... More about our weather records

Advertising

Jeddah weather history for previous 24 hours

 ConditionsComfort  
Time TempWeatherWind HumidityBarometerVisibility
5:00 PM
Thu, May 28
97 °FSunny.9 mph30%29.65 "Hg10 mi
4:00 PM99 °FSunny.12 mph27%29.65 "Hg10 mi
3:00 PM100 °FSunny.10 mph25%29.68 "Hg10 mi
2:00 PM99 °FSunny.10 mph29%29.71 "Hg10 mi
1:00 PM100 °FSunny.5 mph27%29.74 "Hg10 mi
12:00 PM100 °FSunny.9 mph27%29.74 "Hg10 mi
11:00 AM99 °FSunny.6 mph27%29.77 "Hg10 mi
10:00 AM95 °FSunny.5 mph34%29.77 "Hg10 mi
9:00 AM93 °FSunny.No wind39%29.77 "Hg10 mi
8:00 AM90 °FSunny.No wind46%29.77 "Hg10 mi
7:00 AM84 °FSunny.No wind45%29.74 "Hg10 mi
6:00 AM81 °FSunny.No wind45%29.74 "Hg10 mi
5:00 AM81 °FPassing clouds.5 mph45%29.71 "HgN/A
4:00 AM84 °FPassing clouds.No wind40%29.71 "HgN/A
3:00 AM84 °FPassing clouds.No wind33%29.71 "HgN/A
2:00 AM84 °FClear.No wind31%29.71 "Hg10 mi
1:00 AM86 °FClear.No wind27%29.71 "Hg10 mi
12:00 AM88 °FClear.No wind25%29.74 "Hg10 mi
11:00 PM
Wed, May 27
91 °FClear.No wind24%29.77 "Hg10 mi
10:00 PM91 °FClear.5 mph28%29.77 "Hg10 mi
9:00 PM91 °FClear.5 mph28%29.74 "Hg10 mi
8:00 PM93 °FClear.12 mph26%29.74 "Hg10 mi
7:00 PM93 °FClear.14 mph24%29.71 "Hg10 mi
6:00 PM97 °FSunny.12 mph20%29.71 "Hg10 mi
Weather by CustomWeather, © 2015

See weather overviewHow to use our weather pages